TimeCDT,TemperatureF,Dew PointF,Humidity,Sea Level PressureIn,VisibilityMPH,Wind Direction,Wind SpeedMPH,Gust SpeedMPH,PrecipitationIn,Events,Conditions,WindDirDegrees,DateUTC
12:15 AM,35.6,21.2,56,29.89,10.0,South,8.1,-,N/A,,Clear,170,2012-10-08 05:15:00
12:35 AM,35.6,21.2,56,29.88,10.0,South,8.1,-,N/A,,Clear,180,2012-10-08 05:35:00
12:55 AM,35.6,21.2,56,29.88,10.0,South,9.2,-,N/A,,Clear,180,2012-10-08 05:55:00
1:15 AM,37.4,21.2,52,29.87,10.0,South,9.2,-,N/A,,Clear,170,2012-10-08 06:15:00
1:35 AM,35.6,23.0,60,29.87,10.0,South,9.2,-,N/A,,Clear,170,2012-10-08 06:35:00
1:55 AM,37.4,23.0,56,29.86,10.0,South,8.1,-,N/A,,Clear,170,2012-10-08 06:55:00
2:15 AM,35.6,23.0,60,29.86,10.0,South,8.1,-,N/A,,Clear,180,2012-10-08 07:15:00
2:35 AM,37.4,23.0,56,29.86,10.0,South,6.9,-,N/A,,Clear,180,2012-10-08 07:35:00
2:55 AM,35.6,23.0,60,29.85,10.0,South,6.9,-,N/A,,Clear,180,2012-10-08 07:55:00
3:15 AM,35.6,23.0,60,29.84,10.0,South,8.1,-,N/A,,Clear,170,2012-10-08 08:15:00
3:35 AM,35.6,23.0,60,29.83,10.0,South,8.1,-,N/A,,Clear,170,2012-10-08 08:35:00
3:55 AM,35.6,23.0,60,29.83,10.0,South,5.8,-,N/A,,Clear,170,2012-10-08 08:55:00
4:15 AM,35.6,24.8,65,29.83,10.0,SSE,4.6,-,N/A,,Clear,160,2012-10-08 09:15:00
4:35 AM,35.6,24.8,65,29.83,10.0,South,5.8,-,N/A,,Clear,170,2012-10-08 09:35:00
4:55 AM,35.6,24.8,65,29.82,10.0,South,6.9,-,N/A,,Clear,180,2012-10-08 09:55:00
5:35 AM,35.6,24.8,65,29.82,10.0,SSE,6.9,-,N/A,,Clear,160,2012-10-08 10:35:00
5:55 AM,33.8,26.6,75,29.81,10.0,SSE,6.9,-,N/A,,Clear,160,2012-10-08 10:55:00
6:15 AM,33.8,26.6,75,29.81,10.0,SSE,5.8,-,N/A,,Clear,160,2012-10-08 11:15:00
6:35 AM,33.8,26.6,75,29.80,10.0,SSE,6.9,-,N/A,,Clear,160,2012-10-08 11:35:00
6:55 AM,35.6,26.6,70,29.79,10.0,SSE,9.2,-,N/A,,Clear,160,2012-10-08 11:55:00
7:15 AM,35.6,26.6,70,29.79,10.0,South,8.1,-,N/A,,Scattered Clouds,180,2012-10-08 12:15:00
7:35 AM,35.6,26.6,70,29.79,10.0,South,8.1,-,N/A,,Overcast,180,2012-10-08 12:35:00
7:55 AM,37.4,26.6,65,29.79,10.0,South,8.1,-,N/A,,Mostly Cloudy,180,2012-10-08 12:55:00
8:15 AM,37.4,26.6,65,29.79,10.0,South,8.1,-,N/A,,Overcast,180,2012-10-08 13:15:00
8:35 AM,39.2,28.4,65,29.78,10.0,South,9.2,-,N/A,,Overcast,190,2012-10-08 13:35:00
8:55 AM,41.0,28.4,61,29.78,10.0,South,13.8,-,N/A,,Overcast,190,2012-10-08 13:55:00
9:15 AM,41.0,28.4,61,29.78,10.0,South,10.4,17.3,N/A,,Overcast,190,2012-10-08 14:15:00
9:35 AM,41.0,28.4,61,29.78,10.0,South,9.2,-,N/A,,Light Drizzle,170,2012-10-08 14:35:00
9:55 AM,42.8,28.4,57,29.77,10.0,SSW,8.1,-,N/A,,Overcast,200,2012-10-08 14:55:00
10:15 AM,42.8,28.4,57,29.76,10.0,South,11.5,-,N/A,,Overcast,170,2012-10-08 15:15:00
10:35 AM,42.8,28.4,57,29.75,10.0,South,12.7,-,N/A,,Overcast,180,2012-10-08 15:35:00
10:55 AM,44.6,30.2,57,29.74,10.0,South,13.8,18.4,N/A,,Overcast,180,2012-10-08 15:55:00
11:15 AM,44.6,30.2,57,29.74,10.0,South,11.5,17.3,N/A,,Overcast,190,2012-10-08 16:15:00
11:35 AM,48.2,30.2,50,29.73,10.0,South,13.8,19.6,N/A,,Mostly Cloudy,190,2012-10-08 16:35:00
11:55 AM,50.0,30.2,47,29.72,10.0,South,15.0,18.4,N/A,,Mostly Cloudy,170,2012-10-08 16:55:00
12:15 PM,50.0,30.2,47,29.71,10.0,South,15.0,20.7,N/A,,Overcast,180,2012-10-08 17:15:00
12:35 PM,50.0,32.0,50,29.70,10.0,South,12.7,19.6,N/A,,Overcast,180,2012-10-08 17:35:00
12:55 PM,50.0,32.0,50,29.68,10.0,South,16.1,24.2,N/A,,Overcast,180,2012-10-08 17:55:00
1:15 PM,51.8,32.0,47,29.67,10.0,South,16.1,21.9,N/A,,Overcast,180,2012-10-08 18:15:00
1:35 PM,53.6,32.0,44,29.66,10.0,South,13.8,21.9,N/A,,Overcast,180,2012-10-08 18:35:00
1:55 PM,51.8,32.0,47,29.65,10.0,South,16.1,21.9,N/A,,Overcast,180,2012-10-08 18:55:00
2:15 PM,53.6,32.0,44,29.63,10.0,South,15.0,25.3,N/A,,Overcast,180,2012-10-08 19:15:00
2:35 PM,53.6,32.0,44,29.64,10.0,South,12.7,21.9,N/A,,Overcast,190,2012-10-08 19:35:00
2:55 PM,55.4,32.0,41,29.64,10.0,South,10.4,17.3,N/A,,Overcast,190,2012-10-08 19:55:00
3:15 PM,55.4,32.0,41,29.63,10.0,South,16.1,21.9,N/A,,Overcast,180,2012-10-08 20:15:00
3:35 PM,55.4,35.6,47,29.61,10.0,SSE,12.7,18.4,N/A,,Drizzle,160,2012-10-08 20:35:00
3:55 PM,55.4,35.6,47,29.59,10.0,South,11.5,19.6,N/A,,Overcast,170,2012-10-08 20:55:00
4:15 PM,57.2,33.8,41,29.59,10.0,South,13.8,21.9,N/A,,Overcast,180,2012-10-08 21:15:00
4:35 PM,59.0,33.8,39,29.59,10.0,SSW,10.4,-,N/A,,Overcast,200,2012-10-08 21:35:00
4:55 PM,57.2,35.6,44,29.59,10.0,SW,13.8,28.8,N/A,Rain,Light Rain,220,2012-10-08 21:55:00
5:15 PM,59.0,32.0,36,29.59,10.0,SW,11.5,18.4,N/A,,Overcast,220,2012-10-08 22:15:00
5:35 PM,59.0,33.8,39,29.60,10.0,West,8.1,-,N/A,Rain,Light Rain,270,2012-10-08 22:35:00
5:55 PM,53.6,41.0,62,29.61,10.0,NW,6.9,-,N/A,Rain,Light Rain,310,2012-10-08 22:55:00
6:15 PM,53.6,39.2,58,29.61,10.0,WSW,6.9,-,N/A,,Overcast,240,2012-10-08 23:15:00
6:35 PM,57.2,35.6,44,29.61,10.0,WSW,10.4,-,N/A,,Overcast,250,2012-10-08 23:35:00
6:55 PM,57.2,35.6,44,29.62,10.0,WSW,11.5,-,N/A,,Overcast,250,2012-10-08 23:55:00
7:15 PM,59.0,35.6,42,29.62,10.0,West,11.5,-,N/A,,Overcast,260,2012-10-09 00:15:00
7:35 PM,57.2,35.6,44,29.63,10.0,West,11.5,17.3,N/A,,Overcast,260,2012-10-09 00:35:00
7:55 PM,57.2,35.6,44,29.64,10.0,West,10.4,-,N/A,,Mostly Cloudy,260,2012-10-09 00:55:00
8:15 PM,55.4,37.4,51,29.65,10.0,West,9.2,-,N/A,,Mostly Cloudy,260,2012-10-09 01:15:00
8:35 PM,55.4,37.4,51,29.66,10.0,West,8.1,-,N/A,,Overcast,270,2012-10-09 01:35:00
8:55 PM,55.4,39.2,54,29.67,10.0,West,12.7,20.7,N/A,,Overcast,270,2012-10-09 01:55:00
9:15 PM,53.6,39.2,58,29.69,10.0,NW,16.1,19.6,N/A,,Scattered Clouds,310,2012-10-09 02:15:00
9:35 PM,51.8,39.2,62,29.71,10.0,NW,16.1,26.5,N/A,,Clear,320,2012-10-09 02:35:00
9:55 PM,50.0,37.4,62,29.72,10.0,NW,11.5,18.4,N/A,,Clear,310,2012-10-09 02:55:00
10:15 PM,48.2,35.6,62,29.72,10.0,WNW,11.5,-,N/A,,Clear,300,2012-10-09 03:15:00
10:55 PM,46.4,35.6,66,29.73,10.0,West,6.9,-,N/A,,Clear,280,2012-10-09 03:55:00
11:15 PM,46.4,35.6,66,29.72,10.0,West,5.8,-,N/A,,Clear,270,2012-10-09 04:15:00
11:35 PM,44.6,35.6,71,29.73,10.0,West,5.8,-,N/A,,Clear,260,2012-10-09 04:35:00
11:55 PM,44.6,35.6,71,29.74,10.0,WSW,5.8,-,N/A,,Clear,250,2012-10-09 04:55:00